TimeCST,TemperatureF,Dew PointF,Humidity,Sea Level PressureIn,VisibilityMPH,Wind Direction,Wind SpeedMPH,Gust SpeedMPH,PrecipitationIn,Events,Conditions,WindDirDegrees,DateUTC
12:54 AM,30.9,26.1,82,30.11,10.0,NW,10.4,-,N/A,,Clear,320,2013-02-15 06:54:00
1:21 AM,32.0,26.6,80,30.10,10.0,NNW,11.5,-,N/A,,Mostly Cloudy,330,2013-02-15 07:21:00
1:36 AM,32.0,24.8,75,30.10,10.0,NNW,11.5,-,N/A,,Overcast,330,2013-02-15 07:36:00
1:54 AM,32.0,23.0,69,30.12,10.0,NNW,15.0,-,N/A,,Overcast,340,2013-02-15 07:54:00
2:54 AM,28.9,21.9,75,30.15,10.0,NNW,17.3,-,N/A,,Overcast,330,2013-02-15 08:54:00
3:28 AM,28.4,21.2,74,30.14,10.0,NNW,18.4,24.2,N/A,,Mostly Cloudy,340,2013-02-15 09:28:00
3:54 AM,28.0,19.0,69,30.17,10.0,NNW,13.8,-,N/A,,Overcast,340,2013-02-15 09:54:00
4:23 AM,26.6,17.6,69,30.16,10.0,NNW,19.6,23.0,N/A,,Mostly Cloudy,330,2013-02-15 10:23:00
4:54 AM,26.1,18.0,71,30.19,10.0,NNW,13.8,-,N/A,,Partly Cloudy,330,2013-02-15 10:54:00
5:08 AM,24.8,17.6,74,30.18,10.0,NW,15.0,-,N/A,,Mostly Cloudy,320,2013-02-15 11:08:00
5:15 AM,24.8,17.6,74,30.19,10.0,NW,15.0,-,N/A,,Scattered Clouds,320,2013-02-15 11:15:00
5:23 AM,24.8,17.6,74,30.19,10.0,NNW,13.8,-,N/A,,Mostly Cloudy,330,2013-02-15 11:23:00
5:50 AM,24.8,15.8,69,30.20,10.0,NW,13.8,-,N/A,,Scattered Clouds,320,2013-02-15 11:50:00
5:54 AM,24.1,14.0,65,30.23,10.0,NNW,15.0,21.9,N/A,,Scattered Clouds,330,2013-02-15 11:54:00
6:54 AM,23.0,12.0,63,30.25,10.0,NNW,17.3,24.2,N/A,,Clear,330,2013-02-15 12:54:00
7:54 AM,24.1,12.9,62,30.28,10.0,NNW,11.5,-,N/A,,Clear,330,2013-02-15 13:54:00
8:54 AM,25.0,10.9,55,30.30,10.0,NNW,16.1,-,N/A,,Clear,330,2013-02-15 14:54:00
9:54 AM,27.0,12.9,56,30.31,10.0,NNW,15.0,-,N/A,,Clear,330,2013-02-15 15:54:00
10:54 AM,30.0,12.9,49,30.30,10.0,NW,10.4,-,N/A,,Clear,320,2013-02-15 16:54:00
11:54 AM,32.0,14.0,48,30.29,10.0,WNW,12.7,-,N/A,,Clear,300,2013-02-15 17:54:00
12:54 PM,33.1,12.9,43,30.27,10.0,NW,11.5,17.3,N/A,,Clear,310,2013-02-15 18:54:00
1:54 PM,35.1,12.9,40,30.25,10.0,WNW,9.2,19.6,N/A,,Clear,300,2013-02-15 19:54:00
2:54 PM,35.1,12.0,39,30.25,10.0,NW,13.8,-,N/A,,Clear,310,2013-02-15 20:54:00
3:54 PM,34.0,12.9,42,30.25,10.0,NW,11.5,-,N/A,,Scattered Clouds,320,2013-02-15 21:54:00
4:54 PM,34.0,12.9,42,30.26,10.0,NW,10.4,-,N/A,,Overcast,320,2013-02-15 22:54:00
5:54 PM,30.9,12.0,46,30.26,10.0,NW,13.8,-,N/A,,Clear,320,2013-02-15 23:54:00
6:54 PM,28.9,14.0,54,30.28,10.0,NW,11.5,-,N/A,,Scattered Clouds,320,2013-02-16 00:54:00
7:54 PM,27.0,12.9,56,30.29,10.0,NNW,13.8,-,N/A,,Scattered Clouds,330,2013-02-16 01:54:00
8:54 PM,26.1,12.9,58,30.30,10.0,NNW,15.0,-,N/A,,Scattered Clouds,330,2013-02-16 02:54:00
9:54 PM,25.0,12.9,60,30.30,10.0,NW,11.5,-,N/A,,Mostly Cloudy,320,2013-02-16 03:54:00
10:54 PM,21.9,12.9,68,30.29,10.0,NNW,6.9,-,N/A,,Clear,330,2013-02-16 04:54:00
11:54 PM,21.9,12.9,68,30.27,10.0,NNW,9.2,-,N/A,,Clear,330,2013-02-16 05:54:00